W8DRH-13 Weather Reports


time (UTC)temp
F
wind
direction
speed
knots
gust
knots
rain 1hr
in
rain 24hr
in
rain mn
in
humidity
%
barometer
mb
20260503021748 42 162 0.0 0.0 0.00 0.00 0.00 69 1015.5
20260503021244 42 183 0.0 0.0 0.00 0.00 0.00 69 1015.3
20260503020742 42 303 0.0 0.0 0.00 0.00 0.00 69 1015.2
20260503020240 42 18 0.0 0.0 0.00 0.00 0.00 69 1015.2
20260503015736 43 22 0.0 0.0 0.00 0.00 0.00 67 1015.1
20260503015233 43 23 0.0 0.0 0.00 0.00 0.00 66 1015.0
20260503014728 43 32 0.0 0.0 0.00 0.00 0.00 66 1015.1
20260503014227 43 7 0.0 0.0 0.00 0.00 0.00 65 1015.0
20260503013724 43 17 0.0 0.0 0.00 0.00 0.00 66 1015.1
20260503013222 43 21 0.0 0.0 0.00 0.00 0.00 66 1015.0
20260503012719 44 304 0.0 0.0 0.00 0.00 0.00 64 1015.0
20260503012215 43 297 0.0 0.0 0.00 0.00 0.00 64 1014.9
20260503011712 43 292 0.0 0.0 0.00 0.00 0.00 65 1015.1
20260503011209 43 311 0.0 0.0 0.00 0.00 0.00 66 1015.0
20260503010705 44 345 0.0 0.0 0.00 0.00 0.00 66 1015.1
20260503010202 44 300 0.0 0.0 0.00 0.00 0.00 65 1014.8
20260503005700 43 319 0.0 0.0 0.00 0.00 0.00 65 1014.9
20260503005157 43 46 0.0 0.0 0.00 0.00 0.00 67 1015.2
20260503004653 44 14 0.0 0.0 0.00 0.00 0.00 66 1015.1
20260503004151 44 332 0.0 0.0 0.00 0.00 0.00 65 1014.9
20260503003648 43 293 0.0 0.0 0.00 0.00 0.00 67 1014.9
20260503003145 44 37 0.0 0.0 0.00 0.00 0.00 67 1014.8
20260503002642 44 27 0.0 0.0 0.00 0.00 0.00 66 1014.8
20260503002139 44 24 0.0 0.0 0.00 0.00 0.00 66 1014.8
20260503001634 44 4 0.0 0.0 0.00 0.00 0.00 66 1014.6
20260503001132 44 298 1.7 2.6 0.00 0.00 0.00 65 1015.0
20260503000629 44 48 0.0 0.0 0.00 0.00 0.00 66 1014.6
20260503000127 44 126 1.7 1.7 0.00 0.00 0.00 65 1014.6
20260502235623 44 7 0.0 0.0 0.00 0.00 0.00 65 1014.5
20260502235121 44 66 0.0 0.0 0.00 0.00 0.00 65 1014.4
20260502234616 44 30 0.0 0.9 0.00 0.00 0.00 64 1014.4
20260502234114 44 343 0.0 0.0 0.00 0.00 0.00 64 1014.5
20260502233610 44 52 0.0 0.0 0.00 0.00 0.00 65 1014.4
20260502233107 44 297 2.6 2.6 0.00 0.00 0.00 63 1014.2
20260502232603 44 319 1.7 2.6 0.00 0.00 0.00 62 1014.5
20260502232100 44 12 0.0 0.0 0.00 0.00 0.00 64 1014.6
20260502231556 44 65 0.0 0.0 0.00 0.00 0.00 66 1014.8
20260502231049 45 81 0.0 0.0 0.00 0.00 0.00 67 1014.5
20260502230547 45 69 0.0 0.0 0.00 0.00 0.00 67 1014.4
20260502230046 45 78 0.0 0.0 0.00 0.00 0.00 67 1014.5
20260502225541 44 31 1.7 1.7 0.00 0.00 0.00 65 1014.8
20260502225038 45 55 0.0 0.0 0.00 0.00 0.00 65 1014.3
20260502224534 45 1 0.0 0.0 0.00 0.00 0.00 64 1014.5
20260502224031 45 330 3.5 3.5 0.00 0.00 0.00 62 1014.4
20260502223529 45 302 0.0 0.0 0.00 0.00 0.00 64 1014.5
20260502223027 45 69 0.9 0.9 0.00 0.00 0.00 67 1014.4
20260502222524 44 309 2.6 3.5 0.00 0.00 0.00 66 1014.5
20260502222020 44 298 3.5 3.5 0.00 0.00 0.00 68 1014.5
20260502221516 44 24 0.0 0.0 0.00 0.00 0.00 70 1014.5
20260502221014 44 59 0.0 0.0 0.00 0.00 0.00 71 1014.5
20260502220509 44 81 0.0 0.9 0.00 0.00 0.00 71 1014.6
20260502220006 44 108 0.0 0.0 0.00 0.00 0.00 72 1014.5
20260502215504 44 123 0.0 0.0 0.00 0.00 0.00 72 1014.4
20260502215000 44 124 0.0 0.0 0.00 0.00 0.00 73 1014.4
20260502214457 44 121 0.0 0.0 0.00 0.00 0.00 73 1014.5
20260502213955 44 99 0.0 0.0 0.00 0.00 0.00 73 1014.5
20260502213451 44 66 0.0 0.0 0.00 0.00 0.00 73 1014.4
20260502212949 44 78 0.0 0.0 0.00 0.00 0.00 72 1014.5
20260502212448 44 77 0.0 0.0 0.00 0.00 0.00 72 1014.4
20260502211945 44 78 0.0 0.0 0.00 0.00 0.00 72 1014.5
20260502211440 44 77 0.0 0.0 0.00 0.00 0.00 73 1014.4
20260502210938 43 77 0.0 0.0 0.00 0.00 0.00 73 1014.4
20260502210434 43 75 0.0 0.0 0.00 0.00 0.00 73 1014.1
20260502205932 43 75 0.0 0.0 0.00 0.00 0.00 73 1014.3
20260502205428 43 123 1.7 1.7 0.00 0.00 0.00 73 1014.3
20260502204925 43 47 0.0 0.9 0.00 0.00 0.00 74 1014.3
20260502204422 43 104 0.0 0.0 0.00 0.00 0.00 74 1014.4
20260502203920 43 57 1.7 2.6 0.00 0.00 0.00 74 1014.5
20260502203417 44 89 0.0 0.0 0.00 0.00 0.00 75 1014.4
20260502202913 43 83 0.9 1.7 0.00 0.00 0.00 76 1014.3
20260502202410 43 83 2.6 5.2 0.00 0.00 0.00 76 1014.4
20260502201908 43 120 0.0 0.9 0.00 0.00 0.00 76 1014.5
20260502201404 42 63 0.9 1.7 0.00 0.00 0.00 76 1014.6
20260502200901 43 100 1.7 2.6 0.00 0.00 0.00 76 1014.8
20260502200356 43 79 1.7 3.5 0.00 0.00 0.00 76 1014.6
20260502195855 43 36 6.1 7.0 0.00 0.00 0.00 75 1014.8
20260502195351 43 86 5.2 7.0 0.00 0.00 0.00 74 1014.6
20260502194848 44 91 2.6 6.1 0.00 0.00 0.00 73 1014.8
20260502194344 44 33 3.5 3.5 0.00 0.00 0.00 71 1014.6
20260502193840 44 30 0.0 0.0 0.00 0.00 0.00 72 1014.8
20260502193338 44 34 0.0 0.0 0.00 0.00 0.00 71 1014.9
20260502192833 44 41 0.0 0.0 0.00 0.00 0.00 70 1014.9
20260502192330 43 59 0.0 0.0 0.00 0.00 0.00 73 1014.9
20260502191827 43 77 0.0 0.0 0.00 0.00 0.00 74 1014.8
20260502191326 43 50 3.5 3.5 0.00 0.00 0.00 73 1015.0
20260502190822 43 61 0.0 0.0 0.00 0.00 0.00 73 1015.1
20260502190319 43 97 0.9 1.7 0.00 0.00 0.00 73 1015.2
20260502185814 43 130 0.0 1.7 0.00 0.00 0.00 75 1015.0
20260502185306 42 44 1.7 1.7 0.00 0.00 0.00 75 1015.2
20260502184802 42 28 3.5 5.2 0.00 0.00 0.00 74 1015.1
20260502184258 42 20 3.5 5.2 0.00 0.00 0.00 77 1015.3
20260502183755 42 57 2.6 3.5 0.00 0.00 0.00 78 1015.1
20260502183251 42 47 1.7 2.6 0.00 0.00 0.00 78 1015.3
20260502182746 44 58 5.2 6.1 0.00 0.00 0.00 76 1015.1
20260502182242 44 27 4.3 6.1 0.00 0.00 0.00 74 1015.0
20260502181738 44 33 3.5 3.5 0.00 0.00 0.00 72 1015.0
20260502181237 44 21 3.5 3.5 0.00 0.00 0.00 72 1015.2
20260502180735 44 355 0.0 0.0 0.00 0.00 0.00 71 1015.3
20260502180232 44 70 0.0 0.0 0.00 0.00 0.00 71 1015.2
20260502170150 41 71 0.9 1.7 0.00 0.00 0.00 80 1015.4
20260502164137 43 350 2.6 2.6 0.00 0.00 0.00 72 1015.5
20260502163633 43 342 2.6 5.2 0.00 0.00 0.00 71 1015.4
20260502163129 44 289 7.0 7.8 0.00 0.00 0.00 71 1015.3
20260502162626 44 337 4.3 7.0 0.00 0.00 0.00 69 1015.6
20260502162123 45 285 6.1 7.0 0.00 0.00 0.00 67 1015.5
20260502161621 45 18 1.7 1.7 0.00 0.00 0.00 70 1015.6
20260502161118 44 331 2.6 2.6 0.00 0.00 0.00 72 1015.4
20260502160616 43 354 0.0 0.0 0.00 0.00 0.00 71 1015.5
20260502160114 43 302 3.5 3.5 0.00 0.00 0.00 71 1015.4
20260502152028 41 306 2.6 2.6 0.00 0.00 0.00 80 1015.5
20260502151525 41 301 3.5 3.5 0.00 0.00 0.00 80 1015.5
20260502151022 41 33 1.7 2.6 0.00 0.00 0.00 81 1015.4
20260502150520 41 280 2.6 2.6 0.00 0.00 0.00 82 1015.3
20260502130405 39 86 0.0 0.9 0.00 0.00 0.00 84 1014.9
20260502123347 37 72 0.9 0.9 0.00 0.00 0.00 84 1014.6
20260502122845 37 107 0.9 1.7 0.00 0.00 0.00 84 1015.0
20260502122340 37 354 2.6 2.6 0.00 0.00 0.00 83 1014.5
20260502121839 36 51 1.7 1.7 0.00 0.00 0.00 84 1014.4
20260502121336 36 289 3.5 6.1 0.00 0.00 0.00 83 1014.4
20260502120833 36 40 0.9 1.7 0.00 0.00 0.00 83 1014.4
20260502120329 36 305 2.6 2.6 0.00 0.00 0.00 83 1014.8
20260502115827 35 301 3.5 3.5 0.00 0.00 0.00 83 1014.3
20260502115324 35 291 3.5 3.5 0.00 0.00 0.00 83 1014.3
20260502114820 35 339 2.6 3.5 0.00 0.00 0.00 83 1014.4
20260502114317 35 307 6.1 7.0 0.00 0.00 0.00 83 1014.5
20260502113814 35 317 3.5 3.5 0.00 0.00 0.00 83 1014.5
20260502113312 34 283 3.5 3.5 0.00 0.00 0.00 84 1014.5
20260502112810 34 301 2.6 2.6 0.00 0.00 0.00 84 1014.3
20260502112307 34 311 2.6 2.6 0.00 0.00 0.00 84 1014.5
20260502111804 34 303 3.5 3.5 0.00 0.00 0.00 84 1014.4
20260502111301 34 297 4.3 5.2 0.00 0.00 0.00 84 1014.3
20260502110759 34 290 3.5 3.5 0.00 0.00 0.00 85 1014.4
20260502110257 34 331 2.6 2.6 0.00 0.00 0.00 85 1014.1
20260502105754 33 283 3.5 5.2 0.00 0.00 0.00 85 1014.1
20260502105250 33 292 3.5 5.2 0.00 0.00 0.00 85 1014.0
20260502104748 33 298 2.6 2.6 0.00 0.00 0.00 86 1014.4
20260502104246 33 289 3.5 3.5 0.00 0.00 0.00 85 1014.2
20260502103743 33 315 1.7 2.6 0.00 0.00 0.00 85 1014.0
20260502103240 34 292 2.6 3.5 0.00 0.00 0.00 85 1014.0
20260502102738 34 292 2.6 2.6 0.00 0.00 0.00 84 1014.2
20260502102233 34 297 3.5 3.5 0.00 0.00 0.00 84 1014.1
20260502101732 34 288 3.5 3.5 0.00 0.00 0.00 84 1014.2
20260502101230 34 294 2.6 2.6 0.00 0.00 0.00 84 1014.1
20260502100727 34 291 3.5 3.5 0.00 0.00 0.00 84 1014.2
20260502100226 34 279 4.3 5.2 0.00 0.00 0.00 84 1014.0
20260502091200 35 312 3.5 3.5 0.00 0.00 0.00 83 1014.0
20260502090657 35 296 1.7 2.6 0.00 0.00 0.00 83 1014.1
20260502090154 35 327 2.6 5.2 0.00 0.00 0.00 83 1014.0
20260502071044 37 292 3.5 5.2 0.00 0.00 0.00 83 1014.0
20260502070542 37 292 3.5 3.5 0.00 0.00 0.00 83 1013.8
20260502070039 37 292 3.5 3.5 0.00 0.00 0.00 83 1013.8
20260502065538 38 284 2.6 2.6 0.00 0.00 0.00 83 1014.1
20260502065035 38 278 2.6 2.6 0.00 0.00 0.00 82 1013.6
20260502064533 38 305 1.7 2.6 0.00 0.00 0.00 82 1013.9
20260502064030 38 311 2.6 2.6 0.00 0.00 0.00 81 1014.0
20260502063528 38 293 3.5 3.5 0.00 0.00 0.00 81 1013.8
20260502063025 38 290 4.3 5.2 0.00 0.00 0.00 80 1013.8
20260502062522 39 294 5.2 6.1 0.00 0.00 0.00 81 1014.1
20260502062021 39 285 5.2 5.2 0.00 0.00 0.00 81 1014.0
20260502061518 39 282 5.2 5.2 0.00 0.00 0.00 81 1014.2
20260502061015 39 306 5.2 6.1 0.00 0.00 0.00 82 1014.1
20260502060509 39 278 2.6 3.5 0.00 0.00 0.00 83 1014.2
20260502060007 39 293 3.5 3.5 0.00 0.00 0.00 83 1014.2
20260502055459 39 299 5.2 6.1 0.00 0.00 0.00 84 1014.2
20260502054958 39 272 3.5 3.5 0.00 0.00 0.00 84 1014.1
20260502054455 39 279 5.2 6.1 0.00 0.00 0.00 85 1013.9
20260502053952 39 289 4.3 5.2 0.00 0.00 0.00 85 1014.1
20260502053449 39 296 3.5 3.5 0.00 0.00 0.00 86 1014.0
20260502052947 40 288 3.5 5.2 0.00 0.00 0.00 88 1014.2
20260502052445 40 303 2.6 3.5 0.00 0.00 0.00 89 1014.2
20260502051944 40 285 3.5 3.5 0.00 0.00 0.00 90 1014.5
20260502051441 40 287 1.7 2.6 0.00 0.00 0.00 90 1014.1
20260502050938 40 266 2.6 2.6 0.00 0.00 0.00 90 1014.2
20260502050435 40 243 3.5 3.5 0.00 0.00 0.00 91 1014.1
20260502045932 40 282 2.6 2.6 0.00 0.00 0.00 92 1014.0
20260502045428 40 260 4.3 5.2 0.00 0.00 0.00 92 1014.2
20260502044925 40 212 1.7 2.6 0.00 0.00 0.00 92 1014.1
20260502044421 40 259 1.7 1.7 0.00 0.00 0.00 91 1014.0
20260502043918 40 243 1.7 1.7 0.00 0.00 0.00 91 1014.2
20260502043416 41 246 1.7 2.6 0.00 0.00 0.00 91 1014.2
20260502042915 41 232 1.7 2.6 0.00 0.00 0.00 91 1014.1
20260502042413 41 277 3.5 3.5 0.00 0.00 0.00 90 1014.0
20260502041910 41 277 3.5 5.2 0.00 0.00 0.00 90 1014.0
20260502041408 41 242 3.5 3.5 0.00 0.00 0.00 90 1014.3
20260502040905 41 247 2.6 2.6 0.00 0.00 0.00 90 1014.2
20260502040401 41 288 1.7 1.7 0.00 0.00 0.00 90 1014.1
20260502035857 42 282 2.6 2.6 0.00 0.38 0.38 89 1014.1
20260502035354 42 278 2.6 3.5 0.00 0.38 0.38 89 1014.1
20260502034851 42 227 3.5 3.5 0.00 0.38 0.38 89 1014.0
20260502034350 42 318 1.7 2.6 0.00 0.38 0.38 89 1014.2
20260502033848 42 254 1.7 2.6 0.00 0.38 0.38 89 1014.3
20260502033345 42 258 3.5 3.5 0.00 0.38 0.38 89 1014.1
20260502032842 42 257 3.5 3.5 0.00 0.38 0.38 89 1014.2
20260502032338 42 253 3.5 3.5 0.00 0.38 0.38 89 1014.3
20260502031836 42 232 2.6 2.6 0.00 0.38 0.38 90 1014.2
20260502031334 42 225 1.7 2.6 0.00 0.38 0.38 90 1014.2
20260502030832 42 264 4.3 5.2 0.00 0.38 0.38 90 1014.1
20260502030330 42 269 3.5 3.5 0.00 0.38 0.38 90 1014.0
20260502025826 42 255 1.7 2.6 0.00 0.38 0.38 90 1014.2
20260502025324 42 254 2.6 2.6 0.00 0.38 0.38 90 1014.0
20260502024822 41 242 1.7 2.6 0.00 0.38 0.38 91 1014.0
20260502024320 41 251 1.7 2.6 0.00 0.38 0.38 91 1014.0
20260502023817 42 203 0.9 1.7 0.00 0.38 0.38 91 1013.8
20260502023315 42 172 0.9 1.7 0.00 0.38 0.38 90 1013.8
20260502022813 42 209 1.7 1.7 0.00 0.38 0.38 90 1013.7
20260502022309 42 220 0.9 0.9 0.00 0.38 0.38 90 1013.8